Darstellungsparameter: Aktuell verwendete Einstellungen:
Skalierung der Graphiken ... ?
xyx+y,   Skalierungsfaktor:      Skalierung: Modus: x, Faktor: 1
Darstellungszeitraum ... ?
Vom - - bis: - -   Zeitraum: 06.05.2010 - 08.05.2010
Min/Max/Avg-Anzeige ... ?
Zeige MMA aktuell
Zeige MMA Monat
Zeige MMA alles
Zeige --A aktuell
Zeige --A Monat
Zeige --A alles
Keine MMA-Anzeige
MMA:
Average (ber die Originaldaten)
MMA-Basis: 06.05.2010 - 08.05.2010
Quicknavigation für Darstellung... ?
Tage:      1T, 2T, 3T, 5T -1T -2T -3T -5T +1T +2T +3T +5T
Wochen: 1W, 2W, 3W -1W -2W -3W +1W +2W +3W
Monate: 1M, 3M, 6M -1M -3M -6M +1M +3M +6M
Jahre:    1J, 3J, 5J, 10J -1J -3J -5J -10J +1J +3J +5J +10J
Nutze für die Darstellung ... ?
Originaldaten oder Mittelwerte auf ...
Stundenbasis Tagesbasis Wochenbasis
Monatsbasis Jahresbasis      Datenbasis: Original-Daten
Darstellen als:
Statistik (Auto) Statistik J:M      Darstellung:
Zur Graphik,    zurück zur Übersicht aller Sensoren.
 
Tabellarische Datenbersicht: ?
 
Sensor: Nr:Datum:Temp:Abs-Feuchte:Windchill:Wind:
Aussen-T/F 1 06-05-2010 00:10:02 11.3 C 3.47 g/m*3 11.3 C 0 km/h
2 06-05-2010 00:22:02 11.2 C 3.55 g/m*3 11.2 C 0 km/h
3 06-05-2010 00:34:02 11.2 C 3.55 g/m*3 11.2 C 0 km/h
4 06-05-2010 00:46:02 10.7 C 4.03 g/m*3 10.7 C 0 km/h
5 06-05-2010 00:58:02 9.8 C 4.45 g/m*3 9.8 C 0 km/h
6 06-05-2010 01:10:02 8.7 C 5.1 g/m*3 8.7 C 0 km/h
7 06-05-2010 01:22:02 7.9 C 5.5 g/m*3 7.9 C 0 km/h
8 06-05-2010 01:34:02 7.3 C 5.93 g/m*3 7.3 C 0 km/h
9 06-05-2010 01:46:02 7.1 C 6.01 g/m*3 7.1 C 0 km/h
10 06-05-2010 01:58:03 7 C 6.04 g/m*3 7 C 0 km/h
11 06-05-2010 02:10:03 6.9 C 6.31 g/m*3 6.9 C 0 km/h
12 06-05-2010 02:22:03 6.8 C 6.42 g/m*3 6.8 C 0 km/h
13 06-05-2010 02:34:03 6.7 C 6.53 g/m*3 6.7 C 0 km/h
14 06-05-2010 02:46:03 6.5 C 6.52 g/m*3 6.5 C 0 km/h
15 06-05-2010 02:58:03 6.8 C 6.73 g/m*3 6.8 C 0 km/h
16 06-05-2010 03:10:03 6.8 C 6.81 g/m*3 6.8 C 0 km/h
17 06-05-2010 03:22:03 6.7 C 6.84 g/m*3 6.7 C 0 km/h
18 06-05-2010 03:34:03 6.5 C 6.82 g/m*3 6.5 C 0 km/h
19 06-05-2010 03:46:03 6.9 C 7.01 g/m*3 6.9 C 0 km/h
20 06-05-2010 03:58:03 6.8 C 7.04 g/m*3 6.8 C 0 km/h
21 06-05-2010 04:10:03 6.9 C 7.08 g/m*3 6.9 C 0 km/h
22 06-05-2010 04:22:03 6.9 C 7.08 g/m*3 6.9 C 0 km/h
23 06-05-2010 04:34:03 6.9 C 7.08 g/m*3 6.9 C 0 km/h
24 06-05-2010 04:46:03 6.9 C 7.08 g/m*3 6.9 C 0 km/h
25 06-05-2010 04:58:03 6.8 C 7.04 g/m*3 6.8 C 0 km/h
Sensor: Nr:Datum:Temp:Abs-Feuchte:Windchill:Wind:
Aussen-T/F 26 06-05-2010 05:10:03 6.6 C 7.02 g/m*3 6.6 C 0 km/h
27 06-05-2010 05:22:03 6.5 C 6.97 g/m*3 6.5 C 0 km/h
28 06-05-2010 05:34:03 6.6 C 7.02 g/m*3 6.6 C 0 km/h
29 06-05-2010 05:46:03 6.8 C 7.11 g/m*3 6.8 C 0 km/h
30 06-05-2010 05:58:04 6.8 C 7.11 g/m*3 6.8 C 0 km/h
31 06-05-2010 06:10:04 6.5 C 6.97 g/m*3 6.5 C 0 km/h
32 06-05-2010 06:22:04 6.5 C 6.97 g/m*3 6.5 C 0 km/h
33 06-05-2010 06:34:04 6.5 C 6.97 g/m*3 6.5 C 0 km/h
34 06-05-2010 06:46:04 6.6 C 7.02 g/m*3 6.6 C 0 km/h
35 06-05-2010 06:58:04 6.5 C 7.05 g/m*3 6.5 C 0 km/h
36 06-05-2010 07:10:01 6.4 C 7 g/m*3 6.4 C 0 km/h
37 06-05-2010 07:22:02 6.4 C 7 g/m*3 6.4 C 0 km/h
38 06-05-2010 07:34:01 6.3 C 6.96 g/m*3 6.3 C 0 km/h
39 06-05-2010 07:46:03 6.5 C 7.05 g/m*3 6.5 C 0 km/h
40 06-05-2010 07:58:03 6.3 C 6.96 g/m*3 6.3 C 0 km/h
41 06-05-2010 08:10:02 6.1 C 6.87 g/m*3 6.1 C 0 km/h
42 06-05-2010 08:22:02 6.2 C 6.91 g/m*3 6.2 C 0 km/h
43 06-05-2010 08:34:03 6.2 C 6.91 g/m*3 6.2 C 0 km/h
44 06-05-2010 08:46:02 6.4 C 7 g/m*3 6.4 C 0 km/h
45 06-05-2010 08:58:02 6.2 C 6.91 g/m*3 6.2 C 0 km/h
46 06-05-2010 09:10:02 6.2 C 6.84 g/m*3 6.2 C 0 km/h
47 06-05-2010 09:22:01 6.4 C 7 g/m*3 6.4 C 0 km/h
48 06-05-2010 09:34:02 6.6 C 7.1 g/m*3 6.6 C 0 km/h
49 06-05-2010 09:46:02 6.8 C 7.19 g/m*3 6.8 C 0 km/h
50 06-05-2010 09:58:02 6.8 C 7.19 g/m*3 6.8 C 0 km/h
Sensor: Nr:Datum:Temp:Abs-Feuchte:Windchill:Wind:
Aussen-T/F 51 06-05-2010 10:10:02 6.8 C 7.19 g/m*3 6.8 C 0 km/h
52 06-05-2010 10:22:02 6.9 C 7.24 g/m*3 6.9 C 0 km/h
53 06-05-2010 10:34:02 6.8 C 7.11 g/m*3 6.8 C 0 km/h
54 06-05-2010 10:46:02 6.8 C 7.11 g/m*3 6.8 C 0 km/h
55 06-05-2010 10:58:02 6.9 C 7.16 g/m*3 6.9 C 0 km/h
56 06-05-2010 11:10:02 7 C 7.21 g/m*3 7 C 0 km/h
57 06-05-2010 11:22:02 7 C 7.13 g/m*3 7 C 0 km/h
58 06-05-2010 11:34:02 7 C 7.13 g/m*3 7 C 0 km/h
59 06-05-2010 11:46:01 7.1 C 7.18 g/m*3 7.1 C 0 km/h
60 06-05-2010 11:58:01 7.1 C 7.18 g/m*3 7.1 C 0 km/h
61 06-05-2010 12:10:01 7.2 C 7.22 g/m*3 7.2 C 0 km/h
62 06-05-2010 12:22:02 6.9 C 7.08 g/m*3 6.9 C 0 km/h
63 06-05-2010 12:34:02 6.9 C 7.01 g/m*3 6.9 C 0 km/h
64 06-05-2010 12:46:01 7.1 C 7.1 g/m*3 7.1 C 0 km/h
65 06-05-2010 12:58:01 7.2 C 7.06 g/m*3 7.2 C 0 km/h
66 06-05-2010 13:10:02 7.5 C 7.2 g/m*3 7.5 C 0 km/h
67 06-05-2010 13:22:01 7.7 C 7.3 g/m*3 7.7 C 0 km/h
68 06-05-2010 13:34:02 7.4 C 7.16 g/m*3 7.4 C 0 km/h
69 06-05-2010 13:46:02 7.3 C 7.19 g/m*3 7.3 C 0 km/h
70 06-05-2010 13:58:02 7.2 C 7.14 g/m*3 7.2 C 0 km/h
71 06-05-2010 14:10:03 7.3 C 7.27 g/m*3 7.3 C 0 km/h
72 06-05-2010 14:22:02 7.4 C 7.32 g/m*3 7.4 C 0 km/h
73 06-05-2010 14:34:03 7.3 C 7.27 g/m*3 7.3 C 0 km/h
74 06-05-2010 14:46:02 7.4 C 7.32 g/m*3 7.4 C 0 km/h
75 06-05-2010 14:58:02 7.6 C 7.49 g/m*3 7.6 C 0 km/h
Sensor: Nr:Datum:Temp:Abs-Feuchte:Windchill:Wind:
Aussen-T/F 76 06-05-2010 15:10:02 7.5 C 7.44 g/m*3 7.5 C 0 km/h
77 06-05-2010 15:22:02 7.1 C 7.18 g/m*3 7.1 C 0 km/h
78 06-05-2010 15:34:03 7.1 C 7.25 g/m*3 7.1 C 0 km/h
79 06-05-2010 15:46:01 6.9 C 7.16 g/m*3 6.9 C 0 km/h
80 06-05-2010 15:58:01 6.9 C 7.24 g/m*3 6.9 C 0 km/h
81 06-05-2010 16:10:02 6.7 C 7.14 g/m*3 6.7 C 0 km/h
82 06-05-2010 16:22:02 6.5 C 6.97 g/m*3 6.5 C 0 km/h
83 06-05-2010 16:34:02 6.5 C 6.97 g/m*3 6.5 C 0 km/h
84 06-05-2010 16:46:03 6.5 C 6.97 g/m*3 6.5 C 0 km/h
85 06-05-2010 16:58:03 6.5 C 6.97 g/m*3 6.5 C 0 km/h
86 06-05-2010 17:10:02 6.5 C 6.9 g/m*3 6.5 C 0 km/h
87 06-05-2010 17:22:03 6.6 C 6.95 g/m*3 6.6 C 0 km/h
88 06-05-2010 17:34:02 6.4 C 6.85 g/m*3 6.4 C 0 km/h
89 06-05-2010 17:46:03 6.5 C 6.9 g/m*3 6.5 C 0 km/h
90 06-05-2010 17:58:03 6.3 C 6.81 g/m*3 6.3 C 0 km/h
91 06-05-2010 18:10:02 6 C 6.6 g/m*3 6 C 0 km/h
92 06-05-2010 18:22:02 5.9 C 6.56 g/m*3 5.9 C 0 km/h
93 06-05-2010 18:34:02 5.8 C 6.52 g/m*3 5.8 C 0 km/h
94 06-05-2010 18:46:02 5.9 C 6.63 g/m*3 5.9 C 0 km/h
95 06-05-2010 18:58:02 5.9 C 6.63 g/m*3 5.9 C 0 km/h
96 06-05-2010 19:10:02 6 C 6.6 g/m*3 6 C 0 km/h
97 06-05-2010 19:22:02 5.9 C 6.63 g/m*3 5.9 C 0 km/h
98 06-05-2010 19:34:02 5.9 C 6.63 g/m*3 5.9 C 0 km/h
99 06-05-2010 19:46:02 5.7 C 6.55 g/m*3 5.7 C 0 km/h
100 06-05-2010 19:58:02 5.6 C 6.57 g/m*3 5.6 C 0 km/h
Sensor: Nr:Datum:Temp:Abs-Feuchte:Windchill:Wind:
Aussen-T/F 101 06-05-2010 20:10:01 5.6 C 6.57 g/m*3 5.6 C 0 km/h
102 06-05-2010 20:22:02 5.5 C 6.53 g/m*3 5.5 C 0 km/h
103 06-05-2010 20:34:02 5.6 C 6.65 g/m*3 5.6 C 0 km/h
104 06-05-2010 20:46:02 5.4 C 6.56 g/m*3 5.4 C 0 km/h
105 06-05-2010 20:58:02 5.4 C 6.56 g/m*3 5.4 C 0 km/h
106 06-05-2010 21:10:01 5.4 C 6.56 g/m*3 5.4 C 0 km/h
107 06-05-2010 21:22:02 5.4 C 6.56 g/m*3 5.4 C 0 km/h
108 06-05-2010 21:34:01 5.3 C 6.52 g/m*3 5.3 C 0 km/h
109 06-05-2010 21:46:03 5.4 C 6.56 g/m*3 5.4 C 0 km/h
110 06-05-2010 21:58:03 5.4 C 6.56 g/m*3 5.4 C 0 km/h
111 06-05-2010 22:10:02 5.4 C 6.63 g/m*3 5.4 C 0 km/h
112 06-05-2010 22:22:02 5.4 C 6.63 g/m*3 5.4 C 0 km/h
113 06-05-2010 22:34:02 5.4 C 6.63 g/m*3 5.4 C 0 km/h
114 06-05-2010 22:47:02 5.4 C 6.63 g/m*3 5.4 C 0 km/h
115 06-05-2010 22:59:02 5.4 C 6.63 g/m*3 5.4 C 0 km/h
116 06-05-2010 23:11:02 5.4 C 6.63 g/m*3 5.4 C 0 km/h
117 06-05-2010 23:23:02 5.4 C 6.63 g/m*3 5.4 C 0 km/h
118 06-05-2010 23:35:02 5.4 C 6.63 g/m*3 5.4 C 0 km/h
119 06-05-2010 23:47:02 5.3 C 6.58 g/m*3 5.3 C 0 km/h
120 06-05-2010 23:59:02 5.3 C 6.58 g/m*3 5.3 C 0 km/h
121 07-05-2010 00:11:02 5.4 C 6.63 g/m*3 5.4 C 0 km/h
122 07-05-2010 00:23:02 5.4 C 6.63 g/m*3 5.4 C 0 km/h
123 07-05-2010 00:35:02 5.4 C 6.63 g/m*3 5.4 C 0 km/h
124 07-05-2010 00:47:02 5.4 C 6.63 g/m*3 5.4 C 0 km/h
125 07-05-2010 00:59:02 5.4 C 6.63 g/m*3 5.4 C 0 km/h
Sensor: Nr:Datum:Temp:Abs-Feuchte:Windchill:Wind:
Aussen-T/F 126 07-05-2010 01:11:03 5.4 C 6.63 g/m*3 5.4 C 0 km/h
127 07-05-2010 01:23:03 5.4 C 6.63 g/m*3 5.4 C 0 km/h
128 07-05-2010 01:35:03 5.4 C 6.63 g/m*3 5.4 C 0 km/h
129 07-05-2010 01:47:03 5.4 C 6.63 g/m*3 5.4 C 0 km/h
130 07-05-2010 01:59:03 5.4 C 6.63 g/m*3 5.4 C 0 km/h
131 07-05-2010 02:11:03 5.4 C 6.63 g/m*3 5.4 C 0 km/h
132 07-05-2010 02:23:03 5.4 C 6.63 g/m*3 5.4 C 0 km/h
133 07-05-2010 02:35:03 5.4 C 6.63 g/m*3 5.4 C 0 km/h
134 07-05-2010 02:47:03 5.4 C 6.63 g/m*3 5.4 C 0 km/h
135 07-05-2010 02:59:03 5.4 C 6.63 g/m*3 5.4 C 0 km/h
136 07-05-2010 03:11:03 5.4 C 6.63 g/m*3 5.4 C 0 km/h
137 07-05-2010 03:23:03 5.4 C 6.63 g/m*3 5.4 C 0 km/h
138 07-05-2010 03:35:03 5.3 C 6.58 g/m*3 5.3 C 0 km/h
139 07-05-2010 03:47:03 5.3 C 6.58 g/m*3 5.3 C 0 km/h
140 07-05-2010 03:59:03 5.2 C 6.54 g/m*3 5.2 C 0 km/h
141 07-05-2010 04:11:03 5.2 C 6.54 g/m*3 5.2 C 0 km/h
142 07-05-2010 04:23:03 5.2 C 6.54 g/m*3 5.2 C 0 km/h
143 07-05-2010 04:35:03 5.2 C 6.54 g/m*3 5.2 C 0 km/h
144 07-05-2010 04:47:03 5.2 C 6.54 g/m*3 5.2 C 0 km/h
145 07-05-2010 04:59:03 5.1 C 6.5 g/m*3 5.1 C 0 km/h
146 07-05-2010 05:11:04 5 C 6.46 g/m*3 5 C 0 km/h
147 07-05-2010 05:23:04 5 C 6.46 g/m*3 5 C 0 km/h
148 07-05-2010 05:35:04 4.9 C 6.41 g/m*3 4.9 C 0 km/h
149 07-05-2010 05:47:04 4.8 C 6.37 g/m*3 4.8 C 0 km/h
150 07-05-2010 05:59:04 4.7 C 6.33 g/m*3 4.7 C 0 km/h
Sensor: Nr:Datum:Temp:Abs-Feuchte:Windchill:Wind:
Aussen-T/F 151 07-05-2010 06:11:04 4.7 C 6.33 g/m*3 4.7 C 0 km/h
152 07-05-2010 06:23:04 4.6 C 6.29 g/m*3 4.6 C 0 km/h
153 07-05-2010 06:35:04 4.5 C 6.24 g/m*3 4.5 C 0 km/h
154 07-05-2010 06:47:04 4.6 C 6.29 g/m*3 4.6 C 0 km/h
155 07-05-2010 06:59:04 4.6 C 6.29 g/m*3 4.6 C 0 km/h
156 07-05-2010 07:11:04 4.6 C 6.29 g/m*3 4.6 C 0 km/h
157 07-05-2010 07:23:04 4.7 C 6.33 g/m*3 4.7 C 0 km/h
158 07-05-2010 07:35:04 4.6 C 6.29 g/m*3 4.6 C 0 km/h
159 07-05-2010 07:47:04 4.7 C 6.33 g/m*3 4.7 C 0 km/h
160 07-05-2010 07:59:04 4.8 C 6.37 g/m*3 4.8 C 0 km/h
161 07-05-2010 08:11:04 4.9 C 6.41 g/m*3 4.9 C 0 km/h
162 07-05-2010 08:23:04 4.8 C 6.37 g/m*3 4.8 C 0 km/h
163 07-05-2010 08:35:02 5 C 6.46 g/m*3 5 C 0 km/h
164 07-05-2010 08:47:02 4.8 C 6.3 g/m*3 4.8 C 0 km/h
165 07-05-2010 08:59:02 4.6 C 6.22 g/m*3 4.6 C 0 km/h
166 07-05-2010 09:11:02 4.9 C 6.28 g/m*3 4.9 C 0 km/h
167 07-05-2010 09:23:03 4.8 C 6.24 g/m*3 4.8 C 0 km/h
168 07-05-2010 09:35:02 4.7 C 6.13 g/m*3 4.7 C 0 km/h
169 07-05-2010 09:47:02 5 C 6.12 g/m*3 5 C 0 km/h
170 07-05-2010 09:59:02 4.9 C 6.08 g/m*3 4.9 C 0 km/h
171 07-05-2010 10:11:02 5 C 6.05 g/m*3 5 C 0 km/h
172 07-05-2010 10:23:02 5.3 C 6.17 g/m*3 5.3 C 0 km/h
173 07-05-2010 10:35:02 6 C 6.39 g/m*3 6 C 0 km/h
174 07-05-2010 10:47:02 5.6 C 6.15 g/m*3 5.6 C 0 km/h
175 07-05-2010 10:59:02 5.7 C 6.12 g/m*3 5.7 C 0 km/h
Sensor: Nr:Datum:Temp:Abs-Feuchte:Windchill:Wind:
Aussen-T/F 176 07-05-2010 11:11:01 6.8 C 6.58 g/m*3 6.8 C 0 km/h
177 07-05-2010 11:23:02 7 C 6.66 g/m*3 7 C 0 km/h
178 07-05-2010 11:35:02 7.1 C 6.71 g/m*3 7.1 C 0 km/h
179 07-05-2010 11:47:02 7.1 C 6.71 g/m*3 7.1 C 0 km/h
180 07-05-2010 11:59:02 7.1 C 6.63 g/m*3 7.1 C 0 km/h
181 07-05-2010 12:11:03 7.1 C 6.4 g/m*3 7.1 C 0 km/h
182 07-05-2010 12:23:02 7 C 6.28 g/m*3 7 C 0 km/h
183 07-05-2010 12:35:02 7.1 C 6.4 g/m*3 7.1 C 0 km/h
184 07-05-2010 12:47:01 7.3 C 6.48 g/m*3 7.3 C 0 km/h
185 07-05-2010 12:59:01 7.2 C 6.2 g/m*3 7.2 C 0 km/h
186 07-05-2010 13:11:02 7.3 C 6.4 g/m*3 7.3 C 0 km/h
187 07-05-2010 13:23:01 7.8 C 6.61 g/m*3 7.8 C 0 km/h
188 07-05-2010 13:35:02 8.3 C 6.66 g/m*3 8.3 C 0 km/h
189 07-05-2010 13:47:01 7.9 C 6.49 g/m*3 7.9 C 0 km/h
190 07-05-2010 13:59:01 7.7 C 6.41 g/m*3 7.7 C 0 km/h
191 07-05-2010 14:11:02 8.6 C 6.87 g/m*3 8.6 C 0 km/h
192 07-05-2010 14:23:01 8.4 C 6.79 g/m*3 8.4 C 0 km/h
193 07-05-2010 14:35:02 8.5 C 6.92 g/m*3 8.5 C 0 km/h
194 07-05-2010 14:47:01 8.3 C 6.83 g/m*3 8.3 C 0 km/h
195 07-05-2010 14:59:01 8.3 C 6.66 g/m*3 8.3 C 0 km/h
196 07-05-2010 15:11:02 8.4 C 6.87 g/m*3 8.4 C 0 km/h
197 07-05-2010 15:23:02 7.8 C 6.61 g/m*3 7.8 C 0 km/h
198 07-05-2010 15:35:02 7.7 C 6.57 g/m*3 7.7 C 0 km/h
199 07-05-2010 15:47:02 8.5 C 7 g/m*3 8.5 C 0 km/h
200 07-05-2010 15:59:02 8.6 C 7.05 g/m*3 8.6 C 0 km/h
Sensor: Nr:Datum:Temp:Abs-Feuchte:Windchill:Wind:
Aussen-T/F 201 07-05-2010 16:11:01 9.3 C 7.19 g/m*3 9.3 C 0 km/h
202 07-05-2010 16:23:01 9.2 C 6.97 g/m*3 9.2 C 0 km/h
203 07-05-2010 16:35:01 9 C 6.61 g/m*3 9 C 0 km/h
204 07-05-2010 16:47:01 9.2 C 6.97 g/m*3 9.2 C 0 km/h
205 07-05-2010 16:59:01 9.1 C 6.92 g/m*3 9.1 C 0 km/h
206 07-05-2010 17:11:02 8.9 C 6.92 g/m*3 8.9 C 0 km/h
207 07-05-2010 17:23:01 9.2 C 6.97 g/m*3 9.2 C 0 km/h
208 07-05-2010 17:35:02 9.4 C 7.05 g/m*3 9.4 C 0 km/h
209 07-05-2010 17:47:01 9.8 C 7.24 g/m*3 9.8 C 0 km/h
210 07-05-2010 17:59:01 9.8 C 7.24 g/m*3 9.8 C 0 km/h
211 07-05-2010 18:11:02 9.8 C 7.24 g/m*3 9.8 C 0 km/h
212 07-05-2010 18:23:02 9.4 C 6.96 g/m*3 9.4 C 0 km/h
213 07-05-2010 18:35:02 9 C 6.88 g/m*3 9 C 0 km/h
214 07-05-2010 18:47:02 9 C 7.05 g/m*3 9 C 0 km/h
215 07-05-2010 18:59:02 8.5 C 7 g/m*3 8.5 C 0 km/h
216 07-05-2010 19:11:02 8.2 C 7.03 g/m*3 8.2 C 0 km/h
217 07-05-2010 19:23:02 8.1 C 6.99 g/m*3 8.1 C 0 km/h
218 07-05-2010 19:35:02 7.9 C 7.06 g/m*3 7.9 C 0 km/h
219 07-05-2010 19:47:02 7.6 C 7.09 g/m*3 7.6 C 0 km/h
220 07-05-2010 19:59:02 7.7 C 7.14 g/m*3 7.7 C 0 km/h
221 07-05-2010 20:11:02 7.3 C 7.03 g/m*3 7.3 C 0 km/h
222 07-05-2010 20:23:01 7.3 C 7.03 g/m*3 7.3 C 0 km/h
223 07-05-2010 20:35:02 7.2 C 7.06 g/m*3 7.2 C 0 km/h
224 07-05-2010 20:47:02 7.1 C 7.1 g/m*3 7.1 C 0 km/h
225 07-05-2010 20:59:02 6.9 C 7.08 g/m*3 6.9 C 0 km/h
Sensor: Nr:Datum:Temp:Abs-Feuchte:Windchill:Wind:
Aussen-T/F 226 07-05-2010 21:11:02 6.7 C 6.99 g/m*3 6.7 C 0 km/h
227 07-05-2010 21:23:02 6.8 C 7.04 g/m*3 6.8 C 0 km/h
228 07-05-2010 21:35:02 6.8 C 7.11 g/m*3 6.8 C 0 km/h
229 07-05-2010 21:47:02 6.7 C 7.07 g/m*3 6.7 C 0 km/h
230 07-05-2010 21:59:02 6.4 C 6.93 g/m*3 6.4 C 0 km/h
231 07-05-2010 22:11:02 6.1 C 6.79 g/m*3 6.1 C 0 km/h
232 07-05-2010 22:23:02 5.9 C 6.71 g/m*3 5.9 C 0 km/h
233 07-05-2010 22:35:02 5.7 C 6.62 g/m*3 5.7 C 0 km/h
234 07-05-2010 22:47:02 5.6 C 6.57 g/m*3 5.6 C 0 km/h
235 07-05-2010 22:59:02 5.7 C 6.69 g/m*3 5.7 C 0 km/h
236 07-05-2010 23:11:01 5.9 C 6.78 g/m*3 5.9 C 0 km/h
237 07-05-2010 23:23:02 5.9 C 6.78 g/m*3 5.9 C 0 km/h
238 07-05-2010 23:35:02 5.9 C 6.85 g/m*3 5.9 C 0 km/h
239 07-05-2010 23:47:02 6 C 6.82 g/m*3 6 C 0 km/h
240 07-05-2010 23:59:03 6.1 C 6.87 g/m*3 6.1 C 0 km/h
241 08-05-2010 00:11:01 6.2 C 6.91 g/m*3 6.2 C 0 km/h
242 08-05-2010 00:23:02 6.2 C 6.91 g/m*3 6.2 C 0 km/h
243 08-05-2010 00:35:01 6 C 6.82 g/m*3 6 C 0 km/h
244 08-05-2010 00:47:02 5.6 C 6.65 g/m*3 5.6 C 0 km/h
245 08-05-2010 00:59:02 5.5 C 6.6 g/m*3 5.5 C 0 km/h
246 08-05-2010 01:11:02 5.4 C 6.56 g/m*3 5.4 C 0 km/h
247 08-05-2010 01:23:02 5.1 C 6.43 g/m*3 5.1 C 0 km/h
248 08-05-2010 01:35:02 4.9 C 6.35 g/m*3 4.9 C 0 km/h
249 08-05-2010 01:47:02 4.7 C 6.26 g/m*3 4.7 C 0 km/h
250 08-05-2010 01:59:02 4.7 C 6.33 g/m*3 4.7 C 0 km/h
Sensor: Nr:Datum:Temp:Abs-Feuchte:Windchill:Wind:
Aussen-T/F 251 08-05-2010 02:11:01 4.5 C 6.18 g/m*3 4.5 C 0 km/h
252 08-05-2010 02:23:02 4.5 C 6.24 g/m*3 4.5 C 0 km/h
253 08-05-2010 02:35:02 4.6 C 6.29 g/m*3 4.6 C 0 km/h
254 08-05-2010 02:48:03 4.4 C 6.2 g/m*3 4.4 C 0 km/h
255 08-05-2010 03:00:03 4.5 C 6.24 g/m*3 4.5 C 0 km/h
256 08-05-2010 03:12:03 4.6 C 6.29 g/m*3 4.6 C 0 km/h
257 08-05-2010 03:24:03 4.7 C 6.33 g/m*3 4.7 C 0 km/h
258 08-05-2010 03:36:02 4.6 C 6.29 g/m*3 4.6 C 0 km/h
259 08-05-2010 03:48:02 4.6 C 6.29 g/m*3 4.6 C 0 km/h
260 08-05-2010 04:00:02 4.7 C 6.33 g/m*3 4.7 C 0 km/h
261 08-05-2010 04:12:02 4.6 C 6.29 g/m*3 4.6 C 0 km/h
262 08-05-2010 04:24:02 4.4 C 6.2 g/m*3 4.4 C 0 km/h
263 08-05-2010 04:36:02 4 C 6.04 g/m*3 4 C 0 km/h
264 08-05-2010 04:48:02 4 C 6.04 g/m*3 4 C 0 km/h
265 08-05-2010 05:00:02 4.1 C 6.08 g/m*3 4.1 C 0 km/h
266 08-05-2010 05:12:01 4.2 C 6.12 g/m*3 4.2 C 0 km/h
267 08-05-2010 05:24:02 4.4 C 6.2 g/m*3 4.4 C 0 km/h
268 08-05-2010 05:36:02 4.5 C 6.24 g/m*3 4.5 C 0 km/h
269 08-05-2010 05:48:02 4.5 C 6.24 g/m*3 4.5 C 0 km/h
270 08-05-2010 06:00:02 4.5 C 6.24 g/m*3 4.5 C 0 km/h
271 08-05-2010 06:12:03 4.6 C 6.29 g/m*3 4.6 C 0 km/h
272 08-05-2010 06:24:02 4.6 C 6.29 g/m*3 4.6 C 0 km/h
273 08-05-2010 06:36:02 4.8 C 6.37 g/m*3 4.8 C 0 km/h
274 08-05-2010 06:48:01 4.8 C 6.37 g/m*3 4.8 C 0 km/h
275 08-05-2010 07:00:01 4.8 C 6.37 g/m*3 4.8 C 0 km/h
Sensor: Nr:Datum:Temp:Abs-Feuchte:Windchill:Wind:
Aussen-T/F 276 08-05-2010 07:12:02 5 C 6.46 g/m*3 5 C 0 km/h
277 08-05-2010 07:24:01 5.2 C 6.54 g/m*3 5.2 C 0 km/h
278 08-05-2010 07:36:01 5.5 C 6.67 g/m*3 5.5 C 0 km/h
279 08-05-2010 07:48:01 5.6 C 6.72 g/m*3 5.6 C 0 km/h
280 08-05-2010 08:00:01 5.9 C 6.78 g/m*3 5.9 C 0 km/h
281 08-05-2010 08:12:02 6 C 6.68 g/m*3 6 C 0 km/h
282 08-05-2010 08:24:01 5.8 C 6.52 g/m*3 5.8 C 0 km/h
283 08-05-2010 08:36:01 6.2 C 6.55 g/m*3 6.2 C 0 km/h
284 08-05-2010 08:48:01 6.5 C 6.6 g/m*3 6.5 C 0 km/h
285 08-05-2010 09:00:01 7.3 C 6.87 g/m*3 7.3 C 0 km/h
286 08-05-2010 09:12:02 8 C 7.03 g/m*3 8 C 0 km/h
287 08-05-2010 09:24:01 8.1 C 6.82 g/m*3 8.1 C 0 km/h
288 08-05-2010 09:36:01 8.7 C 7.01 g/m*3 8.7 C 0 km/h
289 08-05-2010 09:48:01 9.2 C 7.05 g/m*3 9.2 C 0 km/h
290 08-05-2010 10:00:01 9.1 C 6.74 g/m*3 9.1 C 0 km/h
291 08-05-2010 10:12:02 9.1 C 6.57 g/m*3 9.1 C 0 km/h
292 08-05-2010 10:24:01 9.6 C 6.87 g/m*3 9.6 C 0 km/h
293 08-05-2010 10:36:01 10.1 C 6.9 g/m*3 10.1 C 0 km/h
294 08-05-2010 10:48:01 10.4 C 7.04 g/m*3 10.4 C 0 km/h
295 08-05-2010 11:00:01 11.2 C 7.3 g/m*3 11.2 C 0 km/h
296 08-05-2010 11:12:02 12.1 C 7.18 g/m*3 12.1 C 0 km/h
297 08-05-2010 11:24:01 12.8 C 7.06 g/m*3 12.8 C 0 km/h
298 08-05-2010 11:36:01 14.1 C 6.31 g/m*3 14.1 C 0 km/h
299 08-05-2010 11:48:01 15.1 C 5.55 g/m*3 15.1 C 0 km/h
300 08-05-2010 12:00:01 14.8 C 5.32 g/m*3 14.8 C 0 km/h
Sensor: Nr:Datum:Temp:Abs-Feuchte:Windchill:Wind:
Aussen-T/F 301 08-05-2010 12:12:01 14.5 C 4.97 g/m*3 14.5 C 0 km/h
302 08-05-2010 12:24:02 15.6 C 5.19 g/m*3 15.6 C 0 km/h
303 08-05-2010 12:36:01 15 C 4.74 g/m*3 15 C 0 km/h
304 08-05-2010 12:48:03 16.3 C 5.13 g/m*3 16.3 C 0 km/h
305 08-05-2010 13:00:03 16.5 C 5.2 g/m*3 16.5 C 0 km/h
306 08-05-2010 13:12:02 16 C 5.31 g/m*3 16 C 0 km/h
307 08-05-2010 13:24:02 15.8 C 5.25 g/m*3 15.8 C 0 km/h
308 08-05-2010 13:36:02 17.5 C 5.37 g/m*3 17.5 C 0 km/h
309 08-05-2010 13:48:02 18.4 C 4.88 g/m*3 18.4 C 0 km/h
310 08-05-2010 14:00:02 16.4 C 4.19 g/m*3 16.4 C 0 km/h
311 08-05-2010 14:12:02 15.5 C 4.1 g/m*3 15.5 C 0 km/h
312 08-05-2010 14:24:02 15 C 4.36 g/m*3 15 C 0 km/h
313 08-05-2010 14:36:01 15.6 C 4.39 g/m*3 15.6 C 0 km/h
314 08-05-2010 14:48:02 15.6 C 4.12 g/m*3 15.6 C 0 km/h
315 08-05-2010 15:00:02 16 C 4.22 g/m*3 16 C 0 km/h
316 08-05-2010 15:12:01 16.1 C 4.25 g/m*3 16.1 C 0 km/h
317 08-05-2010 15:24:02 16 C 4.36 g/m*3 16 C 0 km/h
318 08-05-2010 15:36:02 16 C 4.36 g/m*3 16 C 0 km/h
319 08-05-2010 15:48:02 15.5 C 4.63 g/m*3 15.5 C 0 km/h
320 08-05-2010 16:00:02 16.4 C 4.61 g/m*3 16.4 C 0 km/h
321 08-05-2010 16:12:03 16.6 C 4.38 g/m*3 16.6 C 0 km/h
322 08-05-2010 16:24:02 16.4 C 4.47 g/m*3 16.4 C 0 km/h
323 08-05-2010 16:36:02 17.5 C 4.32 g/m*3 17.5 C 0 km/h
324 08-05-2010 16:48:01 17.6 C 4.2 g/m*3 17.6 C 0 km/h
325 08-05-2010 17:00:01 17.4 C 4.15 g/m*3 17.4 C 0 km/h
Sensor: Nr:Datum:Temp:Abs-Feuchte:Windchill:Wind:
Aussen-T/F 326 08-05-2010 17:12:02 17.5 C 4.17 g/m*3 17.5 C 0 km/h
327 08-05-2010 17:24:01 18.5 C 4.27 g/m*3 18.5 C 0 km/h
328 08-05-2010 17:36:02 17.9 C 4.12 g/m*3 17.9 C 0 km/h
329 08-05-2010 17:48:01 18.7 C 4.16 g/m*3 18.7 C 0 km/h
330 08-05-2010 18:00:01 19.2 C 4.12 g/m*3 19.2 C 0 km/h
331 08-05-2010 18:12:02 19.9 C 3.95 g/m*3 19.9 C 0 km/h
332 08-05-2010 18:24:01 19.4 C 4 g/m*3 19.4 C 0 km/h
333 08-05-2010 18:36:02 19.5 C 4.2 g/m*3 19.5 C 0 km/h
334 08-05-2010 18:48:01 19.8 C 4.27 g/m*3 19.8 C 0 km/h
335 08-05-2010 19:00:01 19.1 C 4.1 g/m*3 19.1 C 0 km/h
336 08-05-2010 19:12:02 18.8 C 4.03 g/m*3 18.8 C 0 km/h
337 08-05-2010 19:24:02 18.4 C 4.25 g/m*3 18.4 C 0 km/h
338 08-05-2010 19:36:02 17.5 C 4.47 g/m*3 17.5 C 0 km/h
339 08-05-2010 19:48:01 17.6 C 4.65 g/m*3 17.6 C 0 km/h
340 08-05-2010 20:00:01 17.3 C 5.16 g/m*3 17.3 C 0 km/h
341 08-05-2010 20:12:02 16.5 C 6.04 g/m*3 16.5 C 0 km/h
342 08-05-2010 20:24:02 15.7 C 6.42 g/m*3 15.7 C 0 km/h
343 08-05-2010 20:36:02 15.1 C 6.06 g/m*3 15.1 C 0 km/h
344 08-05-2010 20:48:01 14.3 C 6.02 g/m*3 14.3 C 0 km/h
345 08-05-2010 21:00:01 13.8 C 5.96 g/m*3 13.8 C 0 km/h
346 08-05-2010 21:12:02 13.5 C 6.08 g/m*3 13.5 C 0 km/h
347 08-05-2010 21:24:02 13.5 C 6.43 g/m*3 13.5 C 0 km/h
348 08-05-2010 21:36:02 13.5 C 6.08 g/m*3 13.5 C 0 km/h
349 08-05-2010 21:48:02 12.9 C 5.97 g/m*3 12.9 C 0 km/h
350 08-05-2010 22:00:02 12.4 C 5.9 g/m*3 12.4 C 0 km/h
Sensor: Nr:Datum:Temp:Abs-Feuchte:Windchill:Wind:
Aussen-T/F 351 08-05-2010 22:12:02 11.9 C 6.04 g/m*3 11.9 C 0 km/h
352 08-05-2010 22:24:02 11.7 C 5.86 g/m*3 11.7 C 0 km/h
353 08-05-2010 22:36:01 11.8 C 6.21 g/m*3 11.8 C 0 km/h
354 08-05-2010 22:48:02 12 C 6.39 g/m*3 12 C 0 km/h
355 08-05-2010 23:00:02 11.8 C 6.21 g/m*3 11.8 C 0 km/h
356 08-05-2010 23:12:01 11.6 C 6.34 g/m*3 11.6 C 0 km/h
357 08-05-2010 23:24:02 11 C 6.21 g/m*3 11 C 0 km/h
358 08-05-2010 23:36:01 10.6 C 6.25 g/m*3 10.6 C 0 km/h
359 08-05-2010 23:48:02 10.3 C 6.22 g/m*3 10.3 C 0 km/h

Legende:
   Min
   Max


Maximal/Minimal-Werte vom 06.05.2010 - 08.05.2010

Sensor Min Max Avg
Temp
(Aussen-T/F)
4 °C
08-05-2010  04:36:02
19.9 °C
08-05-2010  18:12:02
8.07 °C
Abs-Feuchte
(Aussen-T/F)
3.47 g/m*3
06-05-2010  00:10:02
7.49 g/m*3
06-05-2010  14:58:02
6.36 g/m*3
Windchill
(Aussen-T/F)
4 C
08-05-2010  04:36:02
19.9 C
08-05-2010  18:12:02
8.05 C

Die Daten stammen von einer Davis Vantage Pro 2 Wetter-Station und werden unter Linux mit der Software wview2wettercgi und aufbereitet. Alle Angaben erfolgen ohne Gewähr für ihre Vollständigkeit oder Richtigkeit.
Kontakt: Rainer Krienke krienke@uni-koblenz.de . Meine Webseiten an der Uni Koblenz oder privat.
Version: $Revision: 0.78 $